When you browse on this site, cookies collect data to enhance your experience and personalize the content and advertising you see.
Visit our Privacy Policy to learn more. By continuing to use the site, you agree to this use of cookies and data.
  • In Hungary
  • List of Countries
  • For 7 days
  • Water Temperature
  • Satellite Maps
  • Weather Map
  • News
  • Weather Widgets
  • user-avatar
    Login

    Hourly Weather Reserva

    Today, 19 November, Monday

    Time Temperature Precipitation Wind Pressure Humidity
    00:00 +16°C° 0 mm 1 mps 681 mmHg 82%
    01:00 +16°C° 0 mm 1 mps 681 mmHg 83%
    02:00 +16°C° 0 mm 1 mps 681 mmHg 85%
    03:00 +16°C° 0 mm 1 mps 681 mmHg 86%
    04:00 +16°C° 0 mm 2 mps 681 mmHg 87%
    05:00 +16°C° 0 mm 2 mps 681 mmHg 88%
    06:00 +16°C° 0 mm 2 mps 681 mmHg 89%
    07:00 +18°C° 0 mm 2 mps 682 mmHg 83%
    08:00 +19°C° 0 mm 2 mps 682 mmHg 77%
    09:00 +21°C° 0 mm 2 mps 683 mmHg 70%
    10:00 +23°C° 0 mm 2 mps 683 mmHg 66%
    11:00 +25°C° 0 mm 2 mps 684 mmHg 61%
    12:00 +26°C° 0 mm 2 mps 684 mmHg 56%
    13:00 +26°C° 0 mm 2 mps 684 mmHg 57%
    14:00 +26°C° 0 mm 2 mps 683 mmHg 59%
    15:00 +26°C° 0 mm 2 mps 683 mmHg 60%
    16:00 +25°C° 0 mm 2 mps 682 mmHg 64%
    17:00 +24°C° 0 mm 2 mps 682 mmHg 67%
    18:00 +23°C° 0 mm 2 mps 682 mmHg 71%
    19:00 +20°C° 0 mm 2 mps 682 mmHg 75%
    20:00 +18°C° 0 mm 2 mps 682 mmHg 80%
    21:00 +17°C° 0 mm 2 mps 683 mmHg 84%
    22:00 +16°C° 0 mm 2 mps 683 mmHg 85%
    23:00 +15°C° 0 mm 1 mps 683 mmHg 87%

    Tomorrow, 20 November, Tuesday

    Time Temperature Precipitation Wind Pressure Humidity
    00:00 +14°C° 0 mm 1 mps 683 mmHg 88%
    01:00 +14°C° 0 mm 1 mps 683 mmHg 89%
    02:00 +13°C° 0 mm 1 mps 683 mmHg 90%
    03:00 +12°C° 0 mm 1 mps 682 mmHg 91%
    04:00 +12°C° 0 mm 1 mps 682 mmHg 90%
    05:00 +12°C° 0 mm 1 mps 682 mmHg 90%
    06:00 +12°C° 0 mm 2 mps 682 mmHg 89%
    07:00 +14°C° 0 mm 2 mps 683 mmHg 79%
    08:00 +17°C° 0 mm 2 mps 684 mmHg 69%
    09:00 +19°C° 0 mm 2 mps 685 mmHg 59%
    10:00 +21°C° 0 mm 2 mps 685 mmHg 51%
    11:00 +25°C° 0 mm 2 mps 685 mmHg 44%
    12:00 +27°C° 0 mm 2 mps 686 mmHg 37%
    13:00 +28°C° 0 mm 2 mps 685 mmHg 36%
    14:00 +28°C° 0 mm 2 mps 684 mmHg 34%
    15:00 +29°C° 0 mm 2 mps 684 mmHg 33%
    16:00 +27°C° 0 mm 2 mps 683 mmHg 40%
    17:00 +26°C° 0 mm 2 mps 683 mmHg 46%
    18:00 +24°C° 0 mm 2 mps 683 mmHg 53%
    19:00 +23°C° 0 mm 2 mps 683 mmHg 59%
    20:00 +20°C° 0 mm 2 mps 683 mmHg 65%
    21:00 +18°C° 0 mm 2 mps 684 mmHg 71%
    22:00 +16°C° 0 mm 2 mps 684 mmHg 74%
    23:00 +15°C° 0 mm 2 mps 684 mmHg 77%

    Day after tomorrow, 21 November, Wednesday

    Time Temperature Precipitation Wind Pressure Humidity
    00:00 +14°C° 0 mm 2 mps 684 mmHg 80%
    01:00 +13°C° 0 mm 2 mps 684 mmHg 82%
    02:00 +12°C° 0 mm 1 mps 683 mmHg 85%
    03:00 +12°C° 0 mm 1 mps 683 mmHg 87%
    04:00 +12°C° 0 mm 1 mps 683 mmHg 87%
    05:00 +12°C° 0 mm 1 mps 683 mmHg 87%
    06:00 +12°C° 0 mm 1 mps 683 mmHg 87%
    07:00 +15°C° 0 mm 2 mps 684 mmHg 79%
    08:00 +18°C° 0 mm 2 mps 685 mmHg 72%
    09:00 +20°C° 0 mm 2 mps 686 mmHg 65%
    10:00 +23°C° 0 mm 2 mps 685 mmHg 63%
    11:00 +24°C° 0 mm 2 mps 685 mmHg 61%
    12:00 +25°C° 0 mm 2 mps 685 mmHg 59%
    13:00 +26°C° 0 mm 2 mps 685 mmHg 56%
    14:00 +27°C° 0 mm 2 mps 684 mmHg 54%
    15:00 +28°C° 0 mm 2 mps 684 mmHg 52%
    16:00 +27°C° 0.1 mm 2 mps 683 mmHg 57%
    17:00 +26°C° 0.1 mm 2 mps 683 mmHg 63%
    18:00 +24°C° 0.1 mm 2 mps 683 mmHg 69%
    19:00 +23°C° 0 mm 2 mps 683 mmHg 75%
    20:00 +20°C° 0 mm 2 mps 683 mmHg 81%
    21:00 +18°C° 0 mm 2 mps 683 mmHg 88%
    22:00 +18°C° 0 mm 2 mps 683 mmHg 90%
    23:00 +18°C° 0 mm 1 mps 683 mmHg 92%

    22 November, Thursday

    Time Temperature Precipitation Wind Pressure Humidity
    00:00 +16°C° 0 mm 1 mps 683 mmHg 94%
    01:00 +16°C° 0 mm 1 mps 683 mmHg 94%
    02:00 +16°C° 0 mm 1 mps 682 mmHg 95%
    03:00 +16°C° 0 mm 1 mps 682 mmHg 95%
    04:00 +16°C° 0 mm 1 mps 682 mmHg 95%
    05:00 +16°C° 0 mm 1 mps 682 mmHg 95%
    06:00 +16°C° 0 mm 1 mps 682 mmHg 94%
    07:00 +19°C° 0 mm 1 mps 683 mmHg 86%
    08:00 +20°C° 0 mm 2 mps 684 mmHg 77%
    09:00 +24°C° 0 mm 2 mps 684 mmHg 68%
    10:00 +25°C° 0.1 mm 2 mps 684 mmHg 65%
    11:00 +26°C° 0.1 mm 2 mps 684 mmHg 62%
    12:00 +27°C° 0.1 mm 2 mps 684 mmHg 59%
    13:00 +27°C° 0.2 mm 2 mps 683 mmHg 56%
    14:00 +28°C° 0.2 mm 2 mps 683 mmHg 53%
    15:00 +29°C° 0.2 mm 1 mps 682 mmHg 50%
    16:00 +28°C° 0.3 mm 1 mps 682 mmHg 58%
    17:00 +27°C° 0.3 mm 1 mps 681 mmHg 66%
    18:00 +25°C° 0.3 mm 1 mps 681 mmHg 73%
    19:00 +24°C° 0.1 mm 1 mps 681 mmHg 80%
    20:00 +22°C° 0.1 mm 1 mps 681 mmHg 86%
    21:00 +20°C° 0.1 mm 1 mps 681 mmHg 93%
    22:00 +20°C° 0 mm 1 mps 681 mmHg 94%
    23:00 +20°C° 0 mm 1 mps 681 mmHg 95%

    23 November, Friday

    Time Temperature Precipitation Wind Pressure Humidity
    00:00 +19°C° 0 mm 1 mps 681 mmHg 96%
    01:00 +19°C° 0 mm 1 mps 681 mmHg 96%
    02:00 +19°C° 0 mm 1 mps 681 mmHg 96%
    03:00 +19°C° 0 mm 1 mps 680 mmHg 97%
    04:00 +18°C° 0 mm 1 mps 680 mmHg 97%
    05:00 +18°C° 0 mm 1 mps 681 mmHg 96%
    06:00 +18°C° 0 mm 1 mps 681 mmHg 96%
    07:00 +20°C° 0.2 mm 1 mps 682 mmHg 89%
    08:00 +22°C° 0.2 mm 1 mps 682 mmHg 82%
    09:00 +24°C° 0.2 mm 2 mps 683 mmHg 75%
    10:00 +26°C° 0.3 mm 2 mps 683 mmHg 66%
    11:00 +28°C° 0.3 mm 2 mps 682 mmHg 57%
    12:00 +30°C° 0.3 mm 2 mps 682 mmHg 49%
    13:00 +30°C° 0.6 mm 2 mps 681 mmHg 51%
    14:00 +29°C° 0.6 mm 2 mps 681 mmHg 54%
    15:00 +29°C° 0.6 mm 1 mps 680 mmHg 57%
    16:00 +28°C° 0.7 mm 1 mps 680 mmHg 65%
    17:00 +26°C° 0.7 mm 1 mps 680 mmHg 72%
    18:00 +23°C° 0.7 mm 0 mps 680 mmHg 79%
    19:00 +23°C° 0.5 mm 1 mps 680 mmHg 84%
    20:00 +22°C° 0.5 mm 1 mps 680 mmHg 88%
    21:00 +21°C° 0.5 mm 1 mps 680 mmHg 92%
    22:00 +21°C° 0.7 mm 1 mps 680 mmHg 92%
    23:00 +20°C° 0.7 mm 1 mps 680 mmHg 93%

    24 November, Saturday

    Time Temperature Precipitation Wind Pressure Humidity
    00:00 +20°C° 0.7 mm 1 mps 680 mmHg 94%
    01:00 +20°C° 1.1 mm 1 mps 680 mmHg 95%
    02:00 +20°C° 1.1 mm 1 mps 679 mmHg 96%
    03:00 +20°C° 1.1 mm 1 mps 679 mmHg 97%
    04:00 +20°C° 1.4 mm 1 mps 679 mmHg 97%
    05:00 +20°C° 1.4 mm 1 mps 679 mmHg 96%
    06:00 +20°C° 1.4 mm 1 mps 680 mmHg 96%
    07:00 +20°C° 2.5 mm 1 mps 680 mmHg 96%
    08:00 +20°C° 2.5 mm 1 mps 680 mmHg 96%
    09:00 +20°C° 2.5 mm 1 mps 681 mmHg 96%
    10:00 +20°C° 2.4 mm 1 mps 681 mmHg 96%
    11:00 +20°C° 2.4 mm 1 mps 680 mmHg 96%
    12:00 +21°C° 2.4 mm 1 mps 680 mmHg 95%
    13:00 +20°C° 2.9 mm 1 mps 680 mmHg 96%
    14:00 +20°C° 2.9 mm 1 mps 679 mmHg 96%
    15:00 +19°C° 2.9 mm 2 mps 679 mmHg 97%
    16:00 +19°C° 4 mm 2 mps 678 mmHg 97%
    17:00 +19°C° 4 mm 2 mps 678 mmHg 98%
    18:00 +18°C° 4 mm 2 mps 678 mmHg 98%
    19:00 +18°C° 4.8 mm 2 mps 678 mmHg 98%
    20:00 +18°C° 4.8 mm 2 mps 679 mmHg 98%
    21:00 +18°C° 4.8 mm 2 mps 679 mmHg 98%
    22:00 +18°C° 3 mm 2 mps 679 mmHg 98%
    23:00 +18°C° 3 mm 2 mps 679 mmHg 98%
    Show more